Date,TemperatureHighF,TemperatureAvgF,TemperatureLowF,DewpointHighF,DewpointAvgF,DewpointLowF,HumidityHigh,HumidityAvg,HumidityLow,PressureMaxIn,PressureMinIn,WindSpeedMaxMPH,WindSpeedAvgMPH,GustSpeedMaxMPH,PrecipitationSumIn
2013-1-1,55.3,45.9,39.5,43.7,34.0,24.1,85,63,50,30.23,30.13,5,1,6,0.00
2013-1-2,64.0,51.0,43.3,38.6,27.9,19.7,51,41,25,30.19,30.08,4,1,5,0.00
2013-1-3,65.1,54.4,47.9,39.3,27.0,18.3,66,35,25,30.18,30.09,4,1,4,0.00
2013-1-4,62.9,52.8,42.6,45.5,33.8,22.8,84,51,28,30.21,30.13,5,1,6,0.00
2013-1-5,58.6,47.2,42.0,46.5,42.9,37.2,96,85,57,30.24,30.09,13,4,16,0.47
2013-1-6,46.2,43.0,38.3,41.9,39.7,36.5,96,88,80,30.17,30.01,6,2,11,0.95
2013-1-7,57.5,48.2,41.1,47.4,41.7,35.1,95,79,62,30.24,30.11,7,2,8,0.00
2013-1-8,70.7,58.5,50.2,52.3,43.4,36.6,76,58,38,30.14,30.05,4,2,12,0.00
2013-1-9,57.6,49.0,38.8,46.9,42.1,36.1,96,79,49,30.09,29.99,7,2,8,0.31
2013-1-10,42.3,40.4,38.0,37.5,35.6,33.9,90,83,76,30.20,30.06,8,3,19,0.18
2013-1-11,45.2,41.6,39.3,39.8,36.0,32.1,93,81,66,30.25,30.12,8,3,14,0.08
2013-1-12,48.7,40.4,35.4,36.2,30.3,24.6,88,68,42,30.22,30.11,4,1,7,0.00
2013-1-13,50.5,40.9,34.2,31.0,19.2,6.8,71,43,23,30.22,30.12,6,2,9,0.00
2013-1-14,51.4,42.0,34.5,33.5,20.7,9.6,54,43,30,30.38,30.17,3,1,9,0.00
2013-1-15,54.3,43.7,36.9,37.9,29.0,20.1,73,56,43,30.44,30.36,2,0,4,0.00
2013-1-16,60.3,50.2,41.5,40.0,33.3,29.2,64,53,38,30.38,30.20,3,0,6,0.00
2013-1-17,71.6,60.8,50.2,41.5,31.7,25.6,46,34,23,30.20,30.08,3,0,3,0.00
2013-1-18,72.6,61.5,54.7,39.7,29.6,20.5,45,30,20,30.14,30.07,3,0,3,0.00
2013-1-19,73.3,61.5,56.1,39.4,26.9,17.8,34,27,19,30.16,30.09,2,0,4,0.00
2013-1-20,75.2,62.1,55.9,34.9,19.4,6.4,30,19,12,30.15,30.05,2,0,7,0.00
2013-1-21,75.4,64.5,58.6,36.5,17.1,-1.5,28,17,7,30.10,30.00,5,1,6,0.00
2013-1-22,70.7,63.6,57.2,33.7,17.0,8.4,27,17,11,30.05,29.96,15,5,20,0.00
2013-1-23,67.1,57.6,47.1,47.1,29.9,11.9,92,42,14,30.03,29.92,19,4,24,0.02
2013-1-24,54.9,52.2,47.7,54.0,50.7,44.7,97,95,81,30.15,29.97,3,0,5,0.31
2013-1-25,69.4,57.8,52.0,58.7,53.3,49.8,98,86,62,30.14,29.98,5,1,10,0.01
2013-1-26,55.1,48.7,42.9,51.4,44.5,37.3,96,86,65,30.08,29.95,10,2,12,0.00
2013-1-27,47.4,43.2,40.3,40.2,38.5,37.2,91,84,73,30.17,30.07,6,3,11,0.03
2013-1-28,48.5,44.0,40.4,42.3,39.6,35.3,90,84,78,30.29,30.16,7,4,17,0.00
2013-1-29,56.8,46.8,41.3,44.6,40.6,37.3,92,80,49,30.30,30.22,7,4,9,0.00
2013-1-30,64.5,53.4,45.4,48.4,40.6,30.5,82,63,43,30.33,30.21,6,1,16,0.00
2013-1-31,67.6,57.0,50.1,45.2,36.2,24.5,64,46,33,30.25,30.13,3,0,3,0.00
2013-2-1,69.7,57.9,48.3,48.4,38.5,26.0,88,49,31,30.18,30.08,3,1,5,0.00
2013-2-2,64.7,54.3,43.8,51.7,39.6,30.8,94,60,38,30.22,30.16,5,0,5,0.00
2013-2-3,59.3,46.8,40.5,49.0,41.0,28.4,96,82,37,30.20,30.10,6,1,7,0.00
2013-2-4,68.4,53.4,40.9,48.5,37.0,25.2,95,57,34,30.13,30.02,5,1,7,0.00
2013-2-5,51.8,44.9,38.7,47.0,41.1,37.5,97,87,72,30.12,30.01,9,2,11,0.00
2013-2-6,58.2,45.8,39.2,46.9,36.5,27.4,86,70,59,30.16,30.10,8,2,9,0.00
2013-2-10,55.9,48.8,43.4,41.1,35.0,27.5,76,59,38,30.10,30.00,2,1,4,0.00
2013-2-11,58.0,48.1,41.5,42.9,34.5,27.8,75,60,48,30.23,30.04,3,0,4,0.00
2013-2-12,58.3,48.2,42.5,47.3,35.9,26.4,91,63,49,30.33,30.23,2,0,3,0.00
2013-2-13,61.4,52.6,46.8,48.2,41.2,34.6,87,66,49,30.30,30.18,5,1,7,0.00
2013-2-14,65.8,57.7,50.7,43.9,37.2,28.8,62,47,33,30.19,30.10,4,1,5,0.00
2013-2-15,75.6,64.5,56.9,43.9,33.9,30.2,39,33,20,30.21,30.14,3,1,4,0.00
2013-2-16,73.4,61.7,48.5,43.9,31.6,24.0,58,33,23,30.17,30.01,3,1,4,0.00
2013-2-17,55.4,45.5,39.5,44.9,40.3,33.5,95,83,45,30.02,29.95,4,1,5,0.00
2013-2-18,45.5,41.5,38.3,41.7,38.2,33.0,92,88,81,30.07,29.99,4,1,7,0.00
2013-2-19,44.0,38.9,35.0,42.2,36.4,32.7,96,91,81,30.00,29.76,18,2,22,0.85
2013-2-20,49.1,41.7,35.4,41.9,36.5,31.0,92,82,61,30.09,29.82,7,3,11,0.02
2013-2-21,53.4,45.1,40.6,41.9,37.1,31.4,93,74,49,30.16,30.06,8,3,11,0.00
2013-2-22,59.1,47.9,41.2,44.4,35.0,26.7,91,62,39,30.25,30.16,6,1,6,0.00
2013-2-23,52.5,45.2,42.0,43.5,38.6,30.4,94,78,57,30.23,30.12,8,4,10,0.01
2013-2-24,64.0,49.7,42.5,38.4,26.1,13.5,68,42,17,30.24,30.13,7,2,12,0.00
2013-2-25,60.1,48.8,41.8,46.5,34.7,19.5,92,61,33,30.24,30.12,5,1,11,0.00
2013-2-26,70.1,56.0,46.5,43.9,26.2,11.5,76,34,12,30.15,30.06,8,2,13,0.00
2013-2-27,57.5,56.6,54.9,21.1,18.8,16.7,26,23,20,30.18,30.15,3,2,5,0.00
2013-3-1,78.6,67.6,60.5,50.8,44.3,29.3,60,44,29,30.32,30.18,8,2,10,0.00
2013-3-2,70.5,60.4,47.3,51.0,39.7,26.2,94,50,26,30.19,30.03,14,2,19,0.00
2013-3-3,60.6,51.1,42.4,48.9,43.8,34.5,96,78,38,30.10,30.03,9,2,11,0.00
2013-3-4,56.8,45.8,40.3,49.1,42.4,38.4,96,88,73,30.13,30.04,7,2,9,0.00
2013-3-5,55.3,45.0,39.0,45.1,40.3,37.0,96,84,65,30.08,29.95,18,6,25,0.00
2013-3-6,48.8,13.1,45.2,47.4,-59.4,-99.9,97,26,90,30.08,30.02,4,-721,26,0.38
2013-3-13,-200.0,0.0,200.0,-99.9,-99.9,-99.9,0,0,100,30.11,30.06,0,-999,0,0.00
2013-3-14,-200.0,0.0,200.0,-99.9,-99.9,-99.9,0,0,100,30.12,30.04,0,-999,0,0.00
2013-3-17,63.7,49.2,42.7,50.4,41.3,31.9,91,75,54,30.06,30.02,3,1,5,0.00
2013-3-18,67.6,54.8,44.4,51.0,36.4,20.6,94,53,22,30.09,30.00,4,1,6,0.00
2013-3-19,71.1,59.5,48.4,50.0,41.3,32.1,83,53,34,30.14,30.00,6,1,11,0.01
2013-3-20,60.3,53.9,49.0,50.1,45.4,30.0,95,74,38,30.13,30.05,5,1,7,0.00
2013-3-21,61.1,48.0,40.3,48.4,43.0,37.6,96,83,62,30.10,29.97,6,2,8,0.00
2013-3-22,67.8,55.9,43.3,41.3,27.0,9.6,87,37,11,30.02,29.95,7,4,10,0.00
2013-3-24,67.1,57.2,46.7,49.4,42.2,25.6,82,58,26,30.04,29.94,2,1,4,0.00
2013-3-25,68.4,52.1,40.7,49.8,41.8,32.8,93,70,42,29.99,29.92,5,1,6,0.00
2013-3-26,62.7,50.8,39.1,49.6,43.9,37.0,94,79,59,29.98,29.94,5,1,7,0.00
2013-3-27,65.0,52.6,45.5,52.6,47.5,41.7,95,83,63,30.02,29.94,10,1,10,0.00
2013-3-28,65.0,53.7,48.6,54.8,49.2,42.2,94,85,62,30.07,29.99,4,1,7,0.00
2013-3-29,66.7,56.2,49.5,52.0,46.7,41.4,90,71,53,30.06,30.00,11,2,14,0.00
2013-3-30,62.9,53.3,45.3,51.4,47.2,38.7,96,81,46,30.06,29.99,19,6,24,0.25
2013-3-31,59.9,53.1,48.3,50.7,47.9,45.8,94,83,68,30.07,29.99,20,9,26,0.00
2013-4-1,57.0,51.3,46.5,51.2,48.9,45.1,95,92,79,30.14,30.03,12,2,14,0.22
2013-4-2,62.2,51.6,44.6,55.4,47.8,43.0,96,87,70,30.16,30.06,4,1,5,0.00
2013-4-3,74.2,58.3,46.4,55.9,48.7,42.5,94,71,49,30.09,29.99,4,1,5,0.00
2013-4-4,65.1,53.6,45.9,58.1,50.6,40.9,96,90,61,30.10,30.00,9,2,12,0.04
2013-4-5,61.5,51.2,45.2,53.4,47.8,43.9,95,88,72,30.18,30.09,6,1,10,0.00
2013-4-6,62.5,52.9,45.6,55.0,48.0,43.4,95,84,69,30.19,30.12,6,2,9,0.00
2013-4-7,62.7,52.8,45.9,53.4,46.8,40.5,95,81,59,30.16,29.92,6,2,11,0.01
2013-4-8,52.5,46.2,42.1,47.3,40.3,38.2,96,80,59,29.99,29.86,13,6,22,0.26
2013-4-9,63.2,56.6,43.4,43.4,36.3,27.5,90,48,26,30.05,29.96,6,4,13,0.00
2013-4-10,64.5,63.8,62.9,30.3,29.0,28.3,28,27,26,30.05,30.02,3,3,6,0.00
2013-4-11,61.4,49.7,42.3,49.1,44.5,40.5,94,83,54,29.98,29.87,8,2,12,0.00
2013-4-12,66.2,52.0,41.6,51.9,44.5,37.6,96,78,39,29.90,29.83,3,1,5,0.00
2013-4-13,54.8,47.1,41.1,48.3,41.7,36.0,95,82,60,29.92,29.84,8,3,11,0.00
2013-4-14,55.7,46.7,39.7,44.5,40.5,34.4,95,80,46,29.94,29.85,8,3,14,0.00
2013-4-15,47.6,43.6,40.6,46.2,39.7,35.0,96,86,75,29.99,29.87,11,5,17,0.27
2013-4-16,53.8,46.3,36.6,39.8,34.4,26.6,91,65,40,30.11,29.97,8,2,11,0.00
2013-4-17,59.4,52.6,42.1,37.6,29.7,25.1,84,42,29,30.22,30.11,10,3,17,0.00
2013-4-18,70.0,58.6,50.9,40.3,30.6,22.7,53,35,18,30.24,30.18,6,1,7,0.00
2013-4-19,76.1,62.1,51.1,49.9,39.9,30.5,77,45,29,30.20,30.05,6,2,8,0.00
2013-4-20,78.8,60.5,42.9,52.5,44.2,28.2,95,58,25,30.06,29.97,5,2,14,0.00
2013-4-21,82.9,71.4,64.1,47.9,38.8,27.3,43,31,24,29.99,29.91,3,1,4,0.00
2013-4-22,79.6,68.7,57.6,50.4,42.7,35.6,60,39,30,29.92,29.83,3,1,3,0.00
2013-4-23,72.9,56.3,41.6,54.4,45.2,28.3,95,70,21,29.91,29.80,4,1,6,0.00
2013-4-24,59.6,51.9,43.0,50.4,47.0,36.6,96,84,47,29.96,29.81,17,5,25,0.00
2013-4-25,64.9,53.0,45.4,51.6,46.9,41.9,96,81,59,30.11,29.95,4,1,4,0.00
2013-4-26,68.1,54.5,46.4,54.0,44.9,34.8,93,71,56,30.18,30.09,3,1,6,0.00
2013-4-27,76.6,63.1,43.2,56.0,45.0,28.5,94,55,22,30.18,30.04,3,1,5,0.00
2013-4-28,74.2,65.6,52.6,54.2,38.4,15.4,68,41,15,30.04,29.86,3,1,5,0.00
2013-4-29,84.5,69.8,48.9,54.6,46.2,34.2,86,46,25,29.87,29.74,3,1,5,0.00
2013-4-30,68.6,56.0,43.4,52.4,45.6,25.9,96,72,24,29.84,29.74,4,1,5,0.00
2013-5-1,73.9,62.4,52.0,54.6,41.1,20.9,81,48,20,30.05,29.84,2,1,3,0.00
2013-5-2,86.0,73.8,65.3,47.3,38.0,27.7,37,28,19,30.11,30.04,3,1,4,0.00
2013-5-3,86.7,74.1,64.2,41.4,29.8,20.4,30,20,14,30.04,29.75,5,2,7,0.00
2013-5-4,73.9,64.3,49.3,52.6,41.2,20.0,87,47,17,29.75,29.56,16,2,21,0.00
2013-5-5,55.1,52.7,50.7,49.7,46.2,39.5,90,79,57,29.77,29.58,26,18,38,0.00
2013-5-6,60.5,55.4,51.0,48.8,47.2,45.1,89,74,62,29.95,29.77,22,8,27,0.02
2013-5-7,64.8,55.4,50.5,54.2,48.1,42.6,88,77,58,30.04,29.93,13,2,14,0.00
2013-5-8,63.8,53.6,45.3,52.4,46.3,40.5,95,77,65,30.12,30.03,3,1,5,0.00
2013-5-9,63.4,50.1,44.0,53.1,46.7,42.8,96,89,66,30.16,30.08,3,1,6,0.00
2013-5-10,65.8,53.2,46.0,55.7,48.8,43.7,96,86,67,30.16,30.09,5,2,6,0.00
2013-5-12,79.1,70.3,63.7,58.5,52.3,33.3,69,54,28,30.07,29.97,6,1,8,0.00
2013-5-13,74.8,64.3,52.3,57.7,45.6,29.9,88,54,23,30.03,29.95,4,1,5,0.00
2013-5-14,57.1,51.5,45.9,50.3,47.1,42.3,91,85,78,30.07,29.97,6,3,7,0.00
2013-5-15,56.1,48.7,44.7,47.6,44.2,41.6,90,85,69,30.07,30.03,6,1,8,0.00
2013-5-16,64.6,54.6,47.6,54.0,49.1,44.3,95,82,65,30.06,29.98,6,2,8,0.00
2013-5-17,58.0,52.5,46.1,49.4,44.1,39.1,89,73,64,30.08,29.94,6,2,10,0.00
2013-5-18,60.1,51.2,43.4,51.1,45.6,39.1,94,81,62,30.14,30.07,5,2,7,0.00
2013-5-19,72.0,59.1,43.6,54.8,45.5,40.1,93,63,38,30.13,29.97,7,2,8,0.00
2013-5-20,85.7,72.1,62.7,54.6,37.5,21.3,48,29,18,29.97,29.90,6,2,10,0.00
2013-5-21,67.5,52.8,45.7,49.7,39.1,-2.4,84,65,6,30.00,29.85,11,4,16,0.00
2013-5-22,58.5,47.4,40.5,41.0,37.8,29.0,87,71,36,29.99,29.90,9,4,14,0.00
2013-5-23,51.0,46.4,43.1,43.2,39.8,36.1,88,78,68,30.04,29.96,9,5,17,0.00
2013-5-24,59.7,47.1,39.7,48.7,41.5,36.2,94,81,65,30.04,29.96,7,2,7,0.00
2013-5-25,54.2,47.0,40.7,46.3,42.9,37.1,94,86,74,30.08,30.00,8,3,10,0.00
2013-5-26,65.1,53.7,46.6,52.8,49.2,45.1,96,85,62,30.14,30.06,7,3,9,0.00
2013-5-27,63.9,55.4,47.9,52.9,48.6,37.8,95,79,46,30.13,30.02,11,4,11,0.00
2013-5-28,64.5,56.3,48.0,59.0,52.3,44.7,96,87,71,30.02,29.91,8,2,11,0.01
2013-5-29,66.8,56.8,47.5,56.7,49.1,25.6,93,76,27,29.95,29.89,6,3,10,0.00
2013-5-30,64.5,52.3,43.5,50.7,43.7,18.7,95,75,17,29.99,29.89,6,2,8,0.00
2013-5-31,83.2,63.9,44.3,52.6,42.2,32.2,88,50,17,29.98,29.91,7,2,15,0.00
2013-6-1,85.6,71.5,50.1,57.1,47.0,40.9,82,44,25,29.91,29.75,4,1,6,0.00
2013-6-2,63.6,50.9,45.6,52.5,47.3,43.9,96,88,66,29.79,29.71,4,1,5,0.00
2013-6-3,63.6,54.4,46.8,54.8,49.9,45.7,96,86,70,29.86,29.75,15,3,21,0.00
2013-6-4,49.2,48.6,48.1,47.4,47.0,46.5,95,94,93,29.86,29.84,2,1,3,0.00
2013-6-5,64.9,53.8,48.1,53.3,49.2,46.7,95,85,65,29.97,29.94,1,0,2,0.00
2013-6-6,67.5,53.9,45.7,55.1,49.4,44.6,96,86,64,29.94,29.89,2,1,4,0.00
2013-6-17,63.6,57.2,52.5,53.6,51.3,48.8,88,81,70,30.04,30.00,7,4,10,0.00
2013-6-18,60.2,53.8,49.9,49.7,48.6,47.3,95,83,68,30.02,29.98,6,2,8,0.00
2013-6-27,78.8,77.0,74.9,55.3,54.3,51.3,48,46,41,29.98,29.97,1,0,1,0.00
2013-6-28,87.0,84.0,77.1,59.1,44.2,37.3,42,26,18,29.97,29.88,3,1,7,0.00
2013-6-29,90.4,84.8,77.0,51.6,46.3,40.5,35,27,20,29.88,29.78,7,3,15,0.00
2013-6-30,83.3,78.4,72.8,60.0,48.8,39.9,49,36,23,29.81,29.73,5,2,7,0.00
2013-7-1,84.3,76.4,70.8,55.4,41.0,30.4,54,30,15,29.83,29.75,2,0,3,0.00
2013-7-2,83.1,72.2,62.8,60.1,49.8,28.0,77,49,18,29.90,29.79,9,1,16,0.00
2013-7-3,83.3,72.0,57.4,61.0,53.5,41.1,86,54,27,29.88,29.75,3,1,5,0.00
2013-7-4,76.0,67.7,58.9,59.4,52.8,46.7,79,60,42,29.76,29.71,4,1,5,0.00
2013-7-5,63.2,55.9,50.0,54.0,50.2,45.8,94,82,54,29.81,29.75,4,2,5,0.00
2013-7-6,66.7,53.8,47.4,54.8,49.8,45.8,95,87,64,29.84,29.78,2,0,3,0.00
2013-7-7,49.0,47.5,45.6,47.3,45.7,43.4,94,93,92,29.83,29.80,1,0,3,0.00
2013-7-8,74.5,66.5,47.2,57.3,47.8,18.4,96,57,14,29.96,29.91,2,1,3,0.00
2013-7-9,85.4,71.7,55.9,61.1,43.4,16.6,78,40,12,29.97,29.92,3,1,5,0.00
2013-7-10,66.4,61.6,53.3,45.6,41.3,38.2,74,48,36,29.94,29.91,2,0,3,0.00
2013-7-11,50.1,50.1,50.1,48.4,48.4,48.4,94,94,94,29.92,29.92,2,2,2,0.00
2013-7-12,70.5,64.6,48.4,56.4,49.8,29.5,88,61,25,29.94,29.88,2,1,3,0.00
2013-7-13,79.1,65.6,55.6,55.7,43.5,29.3,70,46,22,29.94,29.88,2,0,3,0.00
2013-7-14,74.3,66.4,56.3,56.6,45.8,32.7,71,49,28,29.95,29.89,2,1,3,0.00
2013-7-17,60.1,52.6,47.8,53.2,49.9,46.4,96,91,78,30.04,30.02,4,2,5,0.00
2013-7-18,72.9,61.7,47.2,57.7,47.7,24.4,96,63,24,30.03,29.92,4,1,6,0.00
2013-7-19,67.5,57.0,46.4,45.2,35.9,23.7,92,54,19,29.92,29.88,4,1,5,0.00
2013-8-1,64.0,57.6,49.2,53.8,50.3,36.2,95,77,49,30.08,29.96,4,3,6,0.00
2013-8-2,68.6,54.2,45.7,55.8,49.6,35.2,96,85,50,29.98,29.93,4,2,6,0.00
2013-8-3,68.6,54.7,45.9,57.5,50.7,44.8,97,88,64,30.00,29.93,4,1,4,0.01
2013-8-4,68.5,54.6,46.4,56.8,50.4,45.3,96,87,64,30.01,29.97,3,1,4,0.00
2013-8-5,71.5,56.3,45.4,57.8,50.7,44.3,96,83,60,30.01,29.95,3,1,5,0.01
2013-8-6,68.3,55.1,47.3,56.1,50.6,46.2,96,86,63,30.03,29.96,2,1,3,0.00
2013-8-8,53.2,51.9,50.6,51.2,49.9,48.6,94,93,92,29.97,29.95,2,0,2,0.00
2013-8-9,68.2,56.1,47.0,57.0,51.6,45.2,96,86,64,29.99,29.90,3,1,5,0.00
2013-8-10,70.8,60.1,49.6,58.9,53.7,48.2,96,80,63,30.03,29.96,3,1,3,0.00
2013-8-11,74.2,61.3,52.6,58.7,52.4,45.2,94,73,56,29.99,29.93,3,1,4,0.00
2013-8-12,70.2,61.9,56.3,58.0,46.9,41.5,79,59,49,29.97,29.91,2,0,3,0.00
2013-8-19,88.5,69.9,53.9,59.9,55.5,51.2,93,64,35,29.86,29.80,5,1,7,0.00
2013-8-20,71.6,62.0,51.4,58.9,53.8,48.6,95,76,48,29.88,29.81,5,1,5,0.00
2013-8-21,72.5,58.2,47.5,57.4,52.2,46.1,96,82,58,29.93,29.86,2,0,3,0.00
2013-8-22,70.7,58.6,51.5,56.4,52.3,49.0,93,81,56,29.96,29.89,4,1,9,0.00
2013-8-23,74.5,57.7,47.8,58.6,52.3,45.3,96,84,57,29.91,29.82,4,1,7,0.00
2013-8-24,76.3,63.4,52.2,59.9,52.7,41.6,95,69,50,29.87,29.83,5,2,9,0.00
2013-8-25,77.4,65.4,54.3,62.4,55.8,48.0,94,72,58,29.92,29.86,3,1,6,0.00
2013-8-26,73.8,62.7,56.3,60.1,52.3,45.2,83,69,60,29.95,29.86,6,1,9,0.00
2013-8-27,75.2,64.6,56.7,59.2,52.4,44.6,91,65,48,29.86,29.82,3,1,4,0.00
2013-8-28,78.4,66.6,59.6,61.3,52.1,38.8,82,61,37,29.91,29.81,7,1,9,0.00
2013-8-29,78.0,67.3,57.8,62.2,52.6,35.3,76,60,35,30.00,29.91,6,1,7,0.00
2013-8-30,85.1,74.8,69.8,61.3,52.5,42.7,62,46,32,29.96,29.88,6,1,7,0.00
2013-8-31,81.3,72.1,64.0,59.4,55.2,51.4,72,56,42,29.92,29.86,3,1,3,0.00
2013-9-1,79.5,68.4,60.9,62.3,56.8,52.1,88,67,51,29.90,29.85,3,1,4,0.00
2013-9-2,79.5,66.7,59.5,63.2,58.9,56.1,90,77,54,29.92,29.84,6,1,8,0.00
2013-9-3,78.3,64.8,57.3,57.1,52.8,47.6,91,67,43,29.96,29.89,4,1,5,0.00
2013-9-4,77.5,63.5,56.3,58.3,51.8,46.2,79,66,50,29.98,29.93,5,1,7,0.00
2013-9-5,75.6,62.0,53.6,57.2,52.1,47.9,90,71,51,29.98,29.93,6,2,7,0.00
2013-9-6,89.1,74.7,58.2,56.8,47.0,30.6,69,39,22,29.95,29.80,3,1,4,0.00
2013-9-7,87.1,74.4,66.5,57.6,49.6,38.5,67,42,32,29.84,29.78,3,1,4,0.00
2013-9-8,79.3,68.7,57.1,60.2,47.8,32.8,74,48,30,29.83,29.75,3,1,5,0.00
2013-9-17,63.7,56.4,51.4,51.8,50.1,48.5,91,80,60,29.88,29.86,10,4,23,0.00
2013-9-18,79.1,63.9,50.8,54.8,48.6,42.7,93,60,29,29.87,29.81,9,2,14,0.00
2013-9-19,86.1,71.5,64.5,54.2,39.7,22.7,61,34,18,29.82,29.73,2,1,4,0.00
2013-9-20,71.8,60.1,50.5,58.4,50.3,36.9,90,72,36,29.88,29.74,4,1,7,0.00
2013-9-21,63.9,58.0,51.4,58.8,54.8,49.7,96,89,74,29.91,29.82,14,3,18,0.28
2013-9-22,54.6,53.2,51.3,50.6,49.5,48.6,94,87,82,29.92,29.90,4,1,6,0.00
2013-9-23,77.6,69.6,62.2,56.3,53.2,47.3,71,57,41,29.96,29.88,8,3,11,0.00
2013-9-24,63.8,61.2,57.7,52.6,49.4,47.7,76,66,57,29.93,29.89,4,0,5,0.00
2013-9-27,74.4,66.1,57.0,40.4,34.5,27.7,43,32,21,30.06,29.99,9,2,11,0.00
2013-9-28,79.4,66.2,57.4,45.7,35.6,27.6,53,33,22,30.05,29.98,3,0,5,0.00
2013-9-29,76.6,65.7,55.7,58.2,44.9,24.9,86,51,22,30.05,30.01,4,1,5,0.00
2013-9-30,74.6,63.0,55.7,60.3,53.9,45.3,87,73,59,30.05,29.93,7,2,11,0.00
2013-10-1,63.7,55.9,49.3,56.0,46.4,29.6,91,71,40,29.99,29.91,7,2,8,0.00
2013-10-2,69.5,56.6,48.1,53.6,39.4,11.3,80,56,16,30.00,29.90,5,1,7,0.00
2013-10-3,70.5,58.2,45.8,45.4,36.9,25.4,84,48,19,29.99,29.92,9,3,14,0.00
2013-10-4,77.0,67.0,58.1,34.1,28.4,21.0,33,24,17,30.05,29.91,7,1,10,0.00
2013-10-5,66.3,64.7,62.8,27.4,22.7,17.7,24,20,16,30.11,30.05,3,2,6,0.00
2013-10-6,83.2,74.4,66.4,37.9,26.7,19.5,25,17,10,30.06,29.96,13,2,16,0.00
2013-10-7,77.9,66.4,57.0,42.1,28.7,19.7,48,25,17,29.96,29.87,3,1,5,0.00
2013-10-8,66.6,53.8,46.1,52.9,42.6,21.0,92,70,20,29.89,29.77,5,1,6,0.00
2013-10-9,58.1,50.1,46.3,52.6,46.2,41.3,96,87,64,29.79,29.64,6,1,8,0.10
2013-10-10,52.8,51.3,48.4,42.8,39.8,38.2,81,65,58,29.82,29.79,2,0,2,0.00
2013-10-11,66.5,55.4,44.2,51.6,46.9,39.7,93,74,54,30.06,29.98,4,1,4,0.00
2013-10-12,68.4,55.0,42.9,51.4,44.6,39.2,94,70,46,29.99,29.92,4,1,5,0.00
2013-10-13,63.3,54.7,47.8,53.7,47.4,41.3,96,78,49,30.04,29.92,5,1,7,0.00
2013-10-14,77.7,65.4,58.7,47.3,38.6,31.8,50,38,23,30.07,29.95,2,0,5,0.00
2013-10-15,81.4,69.1,60.8,43.6,37.7,33.0,42,33,20,29.98,29.89,4,1,5,0.00
2013-10-16,79.0,68.6,63.2,38.0,31.9,28.1,34,26,18,30.03,29.94,16,3,26,0.00
2013-10-17,80.6,68.6,63.0,41.4,33.1,26.9,35,27,20,30.02,29.93,3,0,4,0.00
2013-10-18,81.7,70.1,63.0,45.9,34.1,25.9,39,27,20,29.99,29.94,2,0,3,0.00
2013-10-19,83.8,71.3,66.0,47.5,31.8,24.7,43,23,18,30.00,29.96,2,0,5,0.00
2013-10-20,80.5,69.9,62.0,52.5,35.8,24.0,59,30,19,29.97,29.86,2,0,4,0.00
2013-10-21,73.6,66.2,58.2,50.0,32.2,27.5,60,29,22,29.93,29.87,2,0,4,0.00
2013-10-29,57.5,53.3,49.7,54.3,50.0,48.2,96,89,78,29.99,29.97,3,1,5,0.02
2013-10-30,63.5,57.3,52.7,50.7,46.0,43.2,84,66,54,30.12,30.03,3,1,4,0.00
2013-10-31,70.9,59.5,51.4,48.7,43.6,36.9,69,56,41,30.12,30.02,3,1,4,0.00
2013-11-1,77.1,63.8,57.0,47.2,39.1,30.5,51,41,25,30.08,29.98,3,1,3,0.00
2013-11-2,77.5,63.1,52.6,51.9,34.4,17.3,84,38,18,29.99,29.89,5,1,7,0.00
2013-11-4,58.8,56.9,53.5,30.5,27.4,25.7,41,32,29,30.02,29.98,5,3,9,0.00
2013-11-5,70.1,60.9,54.7,41.3,30.7,22.5,48,32,21,30.18,30.01,6,2,13,0.00
2013-11-6,74.5,64.2,57.4,38.4,31.2,21.1,39,29,19,30.18,30.12,3,1,5,0.00
2013-11-7,76.2,64.2,57.1,48.4,27.4,14.4,62,27,15,30.13,30.01,3,1,5,0.00
2013-11-8,78.9,67.1,60.7,48.9,29.4,14.6,56,26,14,30.02,29.89,4,1,5,0.00
2013-11-9,75.8,60.2,47.1,50.2,34.5,14.8,92,43,16,30.00,29.91,10,2,16,0.00
2013-11-10,62.4,51.3,45.4,52.2,46.2,24.6,94,83,35,30.11,29.99,6,2,8,0.00
2013-11-11,71.8,58.8,46.3,50.2,40.0,31.3,89,51,29,30.14,30.05,3,0,6,0.00
2013-11-12,70.7,63.0,53.7,51.9,44.0,30.6,69,51,28,30.21,30.11,4,1,6,0.00
2013-11-13,67.8,66.3,64.2,41.4,35.2,31.4,41,32,26,30.17,30.12,2,1,6,0.00
2013-11-15,53.8,46.8,42.8,47.1,41.8,37.3,88,83,76,29.80,29.73,4,1,8,0.00
2013-11-30,66.4,60.2,57.3,45.7,32.8,24.2,54,36,25,30.20,30.13,3,1,5,0.00
2013-12-1,75.3,54.5,57.7,40.8,13.6,-99.9,41,29,26,30.25,30.14,7,-168,10,0.00
2013-12-2,73.0,47.8,47.7,51.1,19.0,-99.9,94,54,26,30.16,29.92,6,-177,10,0.00
2013-12-3,57.7,50.4,48.3,48.4,47.3,46.4,94,89,68,29.94,29.92,5,3,7,0.00
2013-12-8,45.7,38.3,32.7,31.0,25.6,16.2,71,60,49,30.24,30.13,5,1,8,0.00
2013-12-9,51.9,35.8,32.5,37.9,3.2,-99.9,75,42,23,30.35,30.21,3,-180,4,0.00
2013-12-10,54.7,23.2,42.0,15.4,-44.6,-99.9,26,11,17,30.34,30.23,2,-489,6,0.00
2013-12-12,47.8,46.3,44.5,31.9,21.3,17.6,59,37,30,30.20,30.18,4,1,5,0.00
2013-12-13,66.1,44.5,42.9,44.3,6.7,-99.9,71,33,22,30.25,30.16,6,-171,8,0.00
2013-12-14,69.9,50.5,54.5,35.8,4.5,-99.9,38,23,17,30.29,30.22,4,-180,8,0.00
2013-12-15,75.2,53.4,58.0,34.2,-2.1,-99.9,28,15,13,30.27,30.12,3,-205,3,0.00
2013-12-16,76.6,56.1,65.9,37.7,0.6,-99.9,28,15,12,30.12,30.03,3,-190,4,0.00
2013-12-17,77.5,55.5,60.1,45.3,5.0,-99.9,49,20,15,30.08,29.96,4,-190,5,0.00
2013-12-18,61.9,41.6,45.5,49.2,15.7,-99.9,94,62,27,29.96,29.82,5,-187,8,0.00
2013-12-19,50.4,37.3,42.8,43.9,10.0,-99.9,95,58,40,29.89,29.72,6,-198,12,0.05
2013-12-20,60.4,42.6,44.4,31.3,-1.4,-99.9,46,24,14,29.96,29.87,6,-175,12,0.00
2013-12-21,60.7,43.9,45.1,49.7,16.1,-99.9,95,53,32,30.05,29.92,5,-172,8,0.00
2013-12-22,63.3,44.9,48.6,47.4,14.7,-99.9,74,48,42,30.26,30.05,2,-180,3,0.00
2013-12-23,69.7,49.9,50.5,43.0,12.4,-99.9,54,33,30,30.34,30.25,3,-172,3,0.00
2013-12-24,74.4,52.4,58.3,40.5,6.3,-99.9,36,25,24,30.25,30.10,4,-211,9,0.00
2013-12-25,76.2,66.7,61.8,37.7,32.3,24.9,34,28,23,30.17,30.12,2,0,6,0.00
2013-12-26,80.5,56.9,62.0,28.9,-1.7,-99.9,24,13,10,30.16,30.08,3,-180,5,0.00
2013-12-27,76.7,55.8,56.2,28.8,-4.4,-99.9,33,12,8,30.13,30.02,5,-170,6,0.00
2013-12-28,73.9,52.3,58.8,31.1,-7.1,-99.9,28,12,8,30.03,29.91,7,-200,16,0.00
2013-12-29,74.3,52.0,56.2,34.0,0.8,-99.9,33,17,14,30.12,29.99,2,-174,4,0.00
2013-12-30,69.0,48.0,53.8,43.7,0.1,-99.9,54,21,17,30.21,30.10,5,-183,6,0.00
2013-12-31,71.5,47.0,46.2,46.2,6.1,-99.9,92,32,15,30.21,30.08,5,-172,5,0.00
2014-1-1,73.8,53.2,55.0,34.9,-0.3,-99.9,35,16,12,30.15,30.04,3,-173,4,0.00
2014-1-2,74.9,54.4,60.4,33.5,2.1,-99.9,31,17,12,30.08,29.97,3,-182,3,0.00